sat.trackr.live / text

‹ back to catalog

STARLINK-5566

NORAD 56133 · 2023-046AT

PAYLOAD ACTIVE UNKNOWN

§ Identity

Operator
Country
US
Launch date
2023-03-29
Launch site
AFETR
Launch vehicle
Mass (kg)
RCS (m²)

Purposes: comms

External: N2YO · Heavens-Above · Gunter

§ Orbital elements

Epoch: 2026-05-25T04:40:15.390912Z

Period
94.27 min
Inclination
43.0058°
Eccentricity
0.0001387
Mean motion
15.27574173 rev/d
Perigee alt
482.1 km
Apogee alt
484.0 km
Semi-major
6,861.2 km
B*
-7.9520e-6
RAAN
74.6658°
Arg perigee
282.1473°
Mean anomaly
77.9223°
Rev number
17,390

§ Raw data

STARLINK-55661 56133U 23046AT  26145.19462258 -.00000481  00000+0 -79520-5 0  99902 56133  43.0058  74.6658 0001387 282.1473  77.9223 15.27574173173904

JSON: /api/v1/satellites/56133 · /tle

For live sub-satellite position, see the globe view (requires WebGL).

§ Visibility from observer

Set your observer location to see the next 7 days of passes ≥ 10°. The values pass through the URL so the page stays shareable.

No JS? Fill the form by hand. The geolocation button needs JavaScript.